Weather History for DeLand, FL

Change the Weather History Date:

Tuesday, October 16, 2012

  Actual Average Record
Temperature  
Mean Temperature 74 °F -  
Max Temperature 82 °F 83 °F 80 °F (2014)
Min Temperature 66 °F 61 °F 57 °F (2014)
Cooling Degree Days 9    
Growing Degree Days 24 (Base 50)    
Moisture  
Dew Point 64 °F    
Average Humidity 74    
Maximum Humidity 94    
Minimum Humidity 51    
Precipitation  
Precipitation 0.00 in - - ()
Sea Level Pressure  
Sea Level Pressure 29.87 in    
Wind  
Wind Speed 3 mph ()    
Max Wind Speed 10 mph    
Max Gust Speed 16 mph    
Visibility 9.3 miles    
Events      
Averages and records for this station are not official NWS values.
T = Trace of Precipitation, MM = Missing Value Source: Averaged Metar Reports

Daily Weather History Graph

Daily Weather History Graph

Search for Another Location

Airport:

Trip Planner

Search our weather history database for the weather conditions in past years. The results will help you decide how hot, cold, wet, or windy it might be!

Date:

Astronomy

Oct. 16, 2012 Rise Set
Actual Time 7:27 AM EDT 6:53 PM EDT
Civil Twilight 7:03 AM EDT 7:17 PM EDT
Nautical Twilight 6:35 AM EDT 7:44 PM EDT
Astronomical Twilight 6:08 AM EDT 8:12 PM EDT
Moon 8:38 AM EDT (10/16) 7:48 PM EDT (10/16)
Length of Visible Light 12h 14m
Length of Day
11h 26m
New Moon, 2% of the Moon is Illuminated
Oct 16
New Moon
Oct 21
First Quarter
Oct 29
Full
Nov 6
Last Quarter
Nov 13
New

Hourly Weather History & Observations

Time (EDT) Temp. Heat Index Dew Point Humidity Pressure Visibility Wind Dir Wind Speed Gust Speed Precip Events Conditions
12:15 AM 71.6 °F - 69.8 °F 94% 29.88 in 8.0 mi Calm Calm - N/A   Clear
12:35 AM 71.6 °F - 69.8 °F 94% 29.88 in 8.0 mi Calm Calm - N/A   Clear
1:15 AM 71.6 °F - 69.8 °F 94% 29.87 in 7.0 mi Calm Calm - N/A   Clear
1:35 AM 71.6 °F - 69.8 °F 94% 29.87 in 9.0 mi Calm Calm - N/A   Clear
1:55 AM 71.6 °F - 69.8 °F 94% 29.88 in 8.0 mi Calm Calm - N/A   Clear
2:35 AM 71.6 °F - 69.8 °F 94% 29.87 in 9.0 mi Calm Calm - N/A   Clear
2:55 AM 71.6 °F - 68.0 °F 88% 29.87 in 8.0 mi Calm Calm - N/A   Clear
3:15 AM 69.8 °F - 68.0 °F 94% 29.86 in 9.0 mi Calm Calm - N/A   Clear
3:35 AM 69.8 °F - 68.0 °F 94% 29.86 in 9.0 mi Calm Calm - N/A   Clear
3:55 AM 69.8 °F - 68.0 °F 94% 29.85 in 9.0 mi Calm Calm - N/A   Clear
4:15 AM 69.8 °F - 66.2 °F 88% 29.85 in 8.0 mi Calm Calm - N/A   Clear
4:35 AM 69.8 °F - 66.2 °F 88% 29.85 in 8.0 mi Calm Calm - N/A   Clear
4:55 AM 69.8 °F - 66.2 °F 88% 29.85 in 8.0 mi Calm Calm - N/A   Clear
5:15 AM 69.8 °F - 66.2 °F 88% 29.85 in 7.0 mi Calm Calm - N/A   Clear
5:55 AM 69.8 °F - 66.2 °F 88% 29.86 in 8.0 mi NNW 4.6 mph - N/A   Clear
6:15 AM 69.8 °F - 66.2 °F 88% 29.86 in 8.0 mi Calm Calm - N/A   Clear
6:35 AM 69.8 °F - 66.2 °F 88% 29.87 in 8.0 mi NNW 6.9 mph - N/A   Clear
6:55 AM 68.0 °F - 66.2 °F 94% 29.87 in 8.0 mi North 5.8 mph - N/A   Clear
7:15 AM 68.0 °F - 64.4 °F 88% 29.88 in 8.0 mi North 6.9 mph - N/A   Clear
7:35 AM 68.0 °F - 64.4 °F 88% 29.88 in 9.0 mi NNW 3.5 mph - N/A   Clear
7:55 AM 68.0 °F - 64.4 °F 88% 29.89 in 9.0 mi NNW 6.9 mph - N/A   Clear
8:15 AM 68.0 °F - 62.6 °F 83% 29.89 in 9.0 mi North 6.9 mph - N/A   Clear
8:35 AM 69.8 °F - 62.6 °F 78% 29.90 in 10.0 mi NNW 8.1 mph - N/A   Clear
8:55 AM 69.8 °F - 62.6 °F 78% 29.91 in 10.0 mi NNW 9.2 mph - N/A   Clear
9:35 AM 73.4 °F - 62.6 °F 69% 29.91 in 10.0 mi North 8.1 mph - N/A   Clear
9:55 AM 73.4 °F - 62.6 °F 69% 29.91 in 10.0 mi North 10.4 mph - N/A   Clear
10:15 AM 75.2 °F - 62.6 °F 65% 29.91 in 10.0 mi North 9.2 mph 16.1 mph N/A   Clear
10:35 AM 77.0 °F - 62.6 °F 61% 29.91 in 10.0 mi NNE 10.4 mph - N/A   Clear
10:55 AM 78.8 °F - 62.6 °F 57% 29.90 in 10.0 mi NNE 9.2 mph - N/A   Clear
11:15 AM 78.8 °F - 62.6 °F 57% 29.90 in 9.0 mi North 10.4 mph - N/A   Clear
11:35 AM 78.8 °F - 62.6 °F 57% 29.90 in 10.0 mi NE 9.2 mph - N/A   Clear
11:55 AM 80.6 °F 81.8 °F 62.6 °F 54% 29.90 in 10.0 mi NE 4.6 mph - N/A   Clear
12:15 PM 80.6 °F 81.8 °F 62.6 °F 54% 29.90 in 10.0 mi North 8.1 mph - N/A   Clear
12:35 PM 80.6 °F 81.8 °F 62.6 °F 54% 29.89 in 10.0 mi North 6.9 mph - N/A   Partly Cloudy
12:55 PM 80.6 °F 81.8 °F 62.6 °F 54% 29.88 in 10.0 mi NE 9.2 mph - N/A   Scattered Clouds
1:15 PM 80.6 °F 81.8 °F 62.6 °F 54% 29.88 in 10.0 mi NE 8.1 mph - N/A   Mostly Cloudy
1:35 PM 80.6 °F 81.8 °F 62.6 °F 54% 29.87 in 9.0 mi NE 8.1 mph - N/A   Mostly Cloudy
1:55 PM 82.4 °F 83.4 °F 62.6 °F 51% 29.86 in 10.0 mi NNE 5.8 mph - N/A   Partly Cloudy
2:35 PM 80.6 °F 81.8 °F 62.6 °F 54% 29.85 in 10.0 mi NNE 9.2 mph - N/A   Scattered Clouds
2:55 PM 80.6 °F 81.8 °F 62.6 °F 54% 29.84 in 10.0 mi ENE 9.2 mph - N/A   Scattered Clouds
3:15 PM 80.6 °F 81.8 °F 62.6 °F 54% 29.84 in 10.0 mi NE 5.8 mph - N/A   Scattered Clouds
3:35 PM 80.6 °F 81.8 °F 62.6 °F 54% 29.84 in 9.0 mi NE 6.9 mph - N/A   Scattered Clouds
3:55 PM 80.6 °F 82.3 °F 64.4 °F 58% 29.84 in 10.0 mi East 9.2 mph - N/A   Clear
4:15 PM 80.6 °F 81.8 °F 62.6 °F 54% 29.84 in 10.0 mi NNE 10.4 mph - N/A   Scattered Clouds
4:35 PM 78.8 °F - 62.6 °F 57% 29.84 in 10.0 mi NE 6.9 mph - N/A   Scattered Clouds
4:55 PM 80.6 °F 81.8 °F 62.6 °F 54% 29.83 in 10.0 mi NNE 10.4 mph - N/A   Clear
5:35 PM 78.8 °F - 62.6 °F 57% 29.85 in 10.0 mi NE 6.9 mph - N/A   Clear
5:55 PM 75.2 °F - 62.6 °F 65% 29.85 in 10.0 mi NE 8.1 mph - N/A   Clear
6:15 PM 75.2 °F - 62.6 °F 65% 29.85 in 10.0 mi NNE 8.1 mph - N/A   Clear
6:35 PM 75.2 °F - 62.6 °F 65% 29.86 in 9.0 mi NE 3.5 mph - N/A   Clear
6:55 PM 73.4 °F - 62.6 °F 69% 29.85 in 10.0 mi NE 5.8 mph - N/A   Clear
7:15 PM 73.4 °F - 62.6 °F 69% 29.86 in 10.0 mi Calm Calm - N/A   Clear
7:35 PM 71.6 °F - 62.6 °F 73% 29.86 in 10.0 mi Calm Calm - N/A   Clear
7:55 PM 71.6 °F - 62.6 °F 73% 29.87 in 10.0 mi Calm Calm - N/A   Clear
8:15 PM 71.6 °F - 62.6 °F 73% 29.87 in 10.0 mi Calm Calm - N/A   Clear
8:35 PM 69.8 °F - 62.6 °F 78% 29.87 in 10.0 mi Calm Calm - N/A   Clear
8:55 PM 69.8 °F - 62.6 °F 78% 29.87 in 10.0 mi Calm Calm - N/A   Clear
9:35 PM 69.8 °F - 62.6 °F 78% 29.88 in 10.0 mi North 4.6 mph - N/A   Clear
9:55 PM 69.8 °F - 62.6 °F 78% 29.88 in 9.0 mi North 4.6 mph - N/A   Clear
10:15 PM 68.0 °F - 62.6 °F 83% 29.88 in 10.0 mi North 3.5 mph - N/A   Clear
10:55 PM 68.0 °F - 62.6 °F 83% 29.88 in 9.0 mi North 4.6 mph - N/A   Clear
11:15 PM 66.2 °F - 62.6 °F 88% 29.88 in 9.0 mi Calm Calm - N/A   Clear
11:35 PM 66.2 °F - 62.6 °F 88% 29.88 in 10.0 mi Calm Calm - N/A   Clear
11:55 PM 66.2 °F - 62.6 °F 88% 29.87 in 9.0 mi Calm Calm - N/A   Clear